Tiempo cada hora Gogolina

Hoy, 26 Noviembre, Jueves

Tiempo Temperatura Precipitaciones Viento Presión Humedad
00:00 -1°C° 0 mm 3 mps 756 mmHg 85%
01:00 -1°C° 0 mm 3 mps 756 mmHg 84%
02:00 -1°C° 0 mm 3 mps 756 mmHg 84%
03:00 -1°C° 0 mm 3 mps 756 mmHg 83%
04:00 -1°C° 0 mm 3 mps 756 mmHg 83%
05:00 -1°C° 0 mm 3 mps 756 mmHg 82%
06:00 -2°C° 0 mm 4 mps 756 mmHg 82%
07:00 -2°C° 0 mm 4 mps 756 mmHg 81%
08:00 -1°C° 0 mm 4 mps 756 mmHg 78%
09:00 0°C° 0 mm 5 mps 756 mmHg 75%
10:00 0°C° 0 mm 5 mps 756 mmHg 71%
11:00 +1°C° 0 mm 5 mps 755 mmHg 70%
12:00 +2°C° 0 mm 5 mps 755 mmHg 69%
13:00 +3°C° 0 mm 5 mps 755 mmHg 69%
14:00 +3°C° 0 mm 4 mps 755 mmHg 73%
15:00 +1°C° 0 mm 4 mps 755 mmHg 77%
16:00 0°C° 0 mm 4 mps 755 mmHg 81%
17:00 +1°C° 0 mm 4 mps 754 mmHg 81%
18:00 +3°C° 0 mm 4 mps 754 mmHg 80%
19:00 +3°C° 0 mm 4 mps 754 mmHg 80%
20:00 +3°C° 0 mm 4 mps 754 mmHg 83%
21:00 +3°C° 0 mm 4 mps 754 mmHg 85%
22:00 +4°C° 0 mm 4 mps 754 mmHg 88%
23:00 +3°C° 0 mm 4 mps 754 mmHg 90%

Mañana, 27 Noviembre, Viernes

Tiempo Temperatura Precipitaciones Viento Presión Humedad
00:00 +3°C° 0 mm 4 mps 755 mmHg 92%
01:00 +3°C° 0 mm 4 mps 755 mmHg 94%
02:00 +3°C° 0 mm 3 mps 755 mmHg 94%
03:00 +3°C° 0 mm 3 mps 755 mmHg 94%
04:00 +3°C° 0 mm 3 mps 755 mmHg 94%
05:00 +3°C° 0 mm 3 mps 755 mmHg 95%
06:00 +2°C° 0 mm 3 mps 755 mmHg 96%
07:00 +2°C° 0 mm 3 mps 755 mmHg 97%
08:00 +2°C° 0 mm 3 mps 756 mmHg 94%
09:00 +3°C° 0 mm 3 mps 756 mmHg 92%
10:00 +3°C° 0 mm 3 mps 756 mmHg 89%
11:00 +4°C° 0 mm 4 mps 756 mmHg 87%
12:00 +4°C° 0 mm 4 mps 756 mmHg 84%
13:00 +5°C° 0 mm 4 mps 756 mmHg 82%
14:00 +4°C° 0 mm 3 mps 756 mmHg 85%
15:00 +3°C° 0 mm 3 mps 756 mmHg 89%
16:00 +3°C° 0 mm 3 mps 756 mmHg 92%
17:00 +3°C° 0 mm 3 mps 756 mmHg 91%
18:00 +3°C° 0 mm 3 mps 756 mmHg 91%
19:00 +3°C° 0 mm 3 mps 756 mmHg 90%
20:00 +3°C° 0 mm 3 mps 756 mmHg 89%
21:00 +3°C° 0 mm 3 mps 756 mmHg 89%
22:00 +3°C° 0 mm 4 mps 756 mmHg 88%
23:00 +3°C° 0 mm 4 mps 756 mmHg 88%

Pasado mañana, 28 Noviembre, Sábado

Tiempo Temperatura Precipitaciones Viento Presión Humedad
00:00 +3°C° 0 mm 4 mps 756 mmHg 87%
01:00 +3°C° 0 mm 4 mps 756 mmHg 86%
02:00 +3°C° 0 mm 3 mps 756 mmHg 81%
03:00 +3°C° 0 mm 3 mps 756 mmHg 77%
04:00 +3°C° 0 mm 3 mps 756 mmHg 72%
05:00 +3°C° 0 mm 3 mps 756 mmHg 73%
06:00 +3°C° 0 mm 4 mps 756 mmHg 75%
07:00 +1°C° 0 mm 4 mps 756 mmHg 77%
08:00 +1°C° 0 mm 4 mps 756 mmHg 75%
09:00 +1°C° 0 mm 5 mps 756 mmHg 73%
10:00 +1°C° 0 mm 5 mps 757 mmHg 72%
11:00 +1°C° 0 mm 5 mps 757 mmHg 69%
12:00 +1°C° 0 mm 5 mps 757 mmHg 67%
13:00 +2°C° 0 mm 5 mps 757 mmHg 65%
14:00 +1°C° 0 mm 5 mps 757 mmHg 66%
15:00 +1°C° 0 mm 5 mps 758 mmHg 67%
16:00 +1°C° 0 mm 4 mps 758 mmHg 68%
17:00 0°C° 0 mm 4 mps 758 mmHg 69%
18:00 0°C° 0 mm 4 mps 758 mmHg 69%
19:00 0°C° 0 mm 4 mps 759 mmHg 70%
20:00 0°C° 0 mm 3 mps 759 mmHg 71%
21:00 +1°C° 0 mm 2 mps 759 mmHg 72%
22:00 +2°C° 0 mm 1 mps 759 mmHg 74%
23:00 +2°C° 0 mm 1 mps 759 mmHg 77%

29 Noviembre, Domingo

Tiempo Temperatura Precipitaciones Viento Presión Humedad
00:00 -1°C° 0 mm 2 mps 759 mmHg 79%
01:00 -1°C° 0 mm 2 mps 759 mmHg 82%
02:00 -1°C° 0.1 mm 2 mps 759 mmHg 86%
03:00 -1°C° 0.1 mm 2 mps 758 mmHg 90%
04:00 -1°C° 0.1 mm 2 mps 758 mmHg 95%
05:00 -1°C° 0.2 mm 2 mps 758 mmHg 95%
06:00 -1°C° 0.2 mm 2 mps 758 mmHg 95%
07:00 -1°C° 0.2 mm 2 mps 758 mmHg 96%
08:00 +1°C° 0 mm 2 mps 758 mmHg 92%
09:00 +1°C° 0 mm 2 mps 758 mmHg 89%
10:00 +1°C° 0 mm 2 mps 758 mmHg 86%
11:00 +1°C° 0 mm 2 mps 758 mmHg 84%
12:00 +1°C° 0 mm 2 mps 757 mmHg 83%
13:00 +1°C° 0 mm 2 mps 757 mmHg 82%
14:00 +1°C° 0 mm 2 mps 757 mmHg 86%
15:00 +1°C° 0 mm 2 mps 757 mmHg 90%
16:00 +1°C° 0 mm 2 mps 757 mmHg 94%
17:00 -1°C° 0 mm 2 mps 757 mmHg 93%
18:00 -1°C° 0 mm 2 mps 757 mmHg 93%
19:00 -1°C° 0 mm 2 mps 758 mmHg 92%
20:00 +1°C° 0 mm 1 mps 758 mmHg 90%
21:00 +1°C° 0 mm 1 mps 758 mmHg 89%
22:00 +1°C° 0 mm 1 mps 758 mmHg 87%
23:00 +1°C° 0 mm 1 mps 758 mmHg 86%

30 Noviembre, Lunes

Tiempo Temperatura Precipitaciones Viento Presión Humedad
00:00 +1°C° 0 mm 1 mps 758 mmHg 85%
01:00 +1°C° 0 mm 1 mps 758 mmHg 85%
02:00 +1°C° 0 mm 1 mps 759 mmHg 85%
03:00 +1°C° 0 mm 1 mps 759 mmHg 86%
04:00 0°C° 0 mm 1 mps 759 mmHg 87%
05:00 0°C° 0 mm 1 mps 759 mmHg 88%
06:00 0°C° 0 mm 1 mps 759 mmHg 89%
07:00 0°C° 0 mm 1 mps 760 mmHg 90%
08:00 0°C° 0 mm 1 mps 760 mmHg 87%
09:00 +1°C° 0 mm 1 mps 760 mmHg 84%
10:00 +1°C° 0 mm 1 mps 761 mmHg 81%
11:00 +2°C° 0 mm 1 mps 761 mmHg 79%
12:00 +1°C° 0 mm 2 mps 761 mmHg 77%
13:00 +1°C° 0 mm 2 mps 761 mmHg 74%
14:00 +1°C° 0 mm 2 mps 761 mmHg 77%
15:00 +1°C° 0 mm 2 mps 761 mmHg 80%
16:00 +1°C° 0 mm 1 mps 761 mmHg 82%
17:00 +1°C° 0 mm 1 mps 761 mmHg 82%
18:00 +1°C° 0 mm 1 mps 761 mmHg 82%
19:00 +1°C° 0 mm 1 mps 762 mmHg 82%
20:00 -1°C° 0 mm 2 mps 762 mmHg 82%
21:00 -1°C° 0 mm 2 mps 762 mmHg 83%
22:00 -1°C° 0 mm 2 mps 762 mmHg 83%
23:00 -1°C° 0 mm 2 mps 762 mmHg 83%

1 Diciembre, Martes

Tiempo Temperatura Precipitaciones Viento Presión Humedad
00:00 -2°C° 0 mm 2 mps 762 mmHg 83%
01:00 -2°C° 0 mm 2 mps 762 mmHg 83%
02:00 -2°C° 0 mm 2 mps 761 mmHg 83%
03:00 -2°C° 0 mm 2 mps 761 mmHg 84%
04:00 -2°C° 0 mm 2 mps 761 mmHg 84%
05:00 -2°C° 0 mm 2 mps 761 mmHg 84%
06:00 -2°C° 0 mm 2 mps 761 mmHg 83%
07:00 -3°C° 0 mm 2 mps 761 mmHg 83%
08:00 -2°C° 0 mm 3 mps 761 mmHg 80%
09:00 -2°C° 0 mm 3 mps 761 mmHg 77%
10:00 -2°C° 0 mm 4 mps 761 mmHg 73%
11:00 -2°C° 0 mm 4 mps 760 mmHg 72%
12:00 -2°C° 0 mm 4 mps 760 mmHg 71%
13:00 -1°C° 0 mm 4 mps 760 mmHg 70%
14:00 -2°C° 0 mm 4 mps 759 mmHg 72%
15:00 -1°C° 0 mm 3 mps 759 mmHg 75%
16:00 -1°C° 0 mm 3 mps 759 mmHg 78%
17:00 -1°C° 0 mm 3 mps 759 mmHg 78%
18:00 -1°C° 0 mm 3 mps 759 mmHg 78%
19:00 -2°C° 0 mm 4 mps 759 mmHg 79%
20:00 -2°C° 0 mm 4 mps 758 mmHg 79%
21:00 -2°C° 0 mm 4 mps 758 mmHg 79%
22:00 -1°C° 0 mm 4 mps 758 mmHg 79%
23:00 0°C° 0 mm 3 mps 758 mmHg 81%
Mostrar más

Necesitamos Su Consentimiento

Meteoprog y nuestros Proveedores de Servicios pueden almacenar y acceder a sus datos personales como cookies, identificadores de dispositivo u otras tecnologías similares de su dispositivo y procesar dichos datos para personalizar contenido y anuncios, además de ofrecer funciones de redes sociales y analizar el tráfico.

  • Almacenar y/o acceder a información en su dispositivo

    Se puede almacenar o acceder a cookies, identificadores de dispositivo u otra información de su dispositivo para los fines anteriormente indicados.

  • Anuncios y contenido personalizados, medición de anuncios y contenido, percepciones del público, y desarrollo de productos

    Los anuncios y el contenido pueden personalizarse en base a su perfil. Se pueden añadir más datos para personalizar mejor los anuncios y contenidos. Se puede medir el rendimiento de los anuncios y contenidos. Se puede obtener la percepción sobre el público que ha visto los anuncios y contenidos. Dichos datos pueden usarse para desarrollar o mejorar la experiencia del usuario, sistemas y software.

Al hacer clic en ‘Estoy De Acuerdo’ usted permitirá el uso de las cookies, identificadores de dispositivo, balizas web u otras tecnologías similares indicadas. Su configuración puede cambiarse desde el navegador de su dispositivo.

Para ciertos fines, los intereses legítimos pueden ser considerados por encima del consentimiento. Puede leer más sobre ello en nuestra Política de Privacidad y Cookies.